This is the latest recevied weather packets stored in our database for station/object KF0JJO. If no packets are shown the sender has not sent any weather packets the latest 1 day(s).
| Time | Temp. | Humidity | Pressure | Rain* | Wind** | Luminosity | Snow |
|---|---|---|---|---|---|---|---|
| 1778004620 | 10° C | 35% | 1042.1 hPa | 0 mm | 0 m/s | 386 W/m² | - |
| 1778004315 | 10° C | 35% | 1042.3 hPa | 0 mm | 0 m/s | 248 W/m² | - |
| 1778004020 | 10.56° C | 33% | 1042.2 hPa | 0 mm | 0 m/s | 222 W/m² | - |
| 1778003708 | 10.56° C | 34% | 1042.2 hPa | 0 mm | 0 m/s | 282 W/m² | - |
| 1778003406 | 10° C | 34% | 1042.2 hPa | 0 mm | 0.45 m/s, 33° | 275 W/m² | - |
| 1778003103 | 10° C | 34% | 1042.1 hPa | 0 mm | 0.45 m/s, 35° | 318 W/m² | - |
| 1778002799 | 10° C | 35% | 1042.4 hPa | 0 mm | 0.45 m/s, 25° | 251 W/m² | - |
| 1778002496 | 10° C | 35% | 1042.3 hPa | 0 mm | 0 m/s | 213 W/m² | - |
| 1778002192 | 10° C | 35% | 1042.3 hPa | 0 mm | 0 m/s | 243 W/m² | - |
| 1778001891 | 10° C | 34% | 1042.2 hPa | 0 mm | 0 m/s | 242 W/m² | - |
| 1778001590 | 10° C | 35% | 1042.2 hPa | 0 mm | 0 m/s | 273 W/m² | - |
| 1778001287 | 9.44° C | 34% | 1042.4 hPa | 0 mm | 0.45 m/s, 31° | 305 W/m² | - |
| 1778000983 | 9.44° C | 34% | 1042.2 hPa | 0 mm | 0 m/s | 261 W/m² | - |
| 1778000680 | 8.89° C | 35% | 1042.4 hPa | 0 mm | 0.45 m/s, 37° | 268 W/m² | - |
| 1778000376 | 8.89° C | 34% | 1042.4 hPa | 0 mm | 0.89 m/s, 104° | 221 W/m² | - |
| 1778000072 | 9.44° C | 34% | 1042.5 hPa | 0 mm | 0.45 m/s, 37° | 243 W/m² | - |
| 1777999767 | 8.89° C | 35% | 1042.4 hPa | 0 mm | 0 m/s | 247 W/m² | - |
| 1777999464 | 9.44° C | 34% | 1042.3 hPa | 0 mm | 0.45 m/s, 49° | 171 W/m² | - |
| 1777999162 | 9.44° C | 34% | 1042.4 hPa | 0 mm | 0.89 m/s, 21° | 240 W/m² | - |
| 1777998861 | 8.89° C | 36% | 1042.3 hPa | 0 mm | 0 m/s | 227 W/m² | - |
| 1777998560 | 8.89° C | 36% | 1042.4 hPa | 0 mm | 0 m/s | 159 W/m² | - |
| 1777998255 | 8.89° C | 36% | 1042.4 hPa | 0 mm | 0 m/s | 185 W/m² | - |
| 1777997952 | 8.89° C | 35% | 1042.5 hPa | 0 mm | 0 m/s | 182 W/m² | - |
| 1777997649 | 8.33° C | 35% | 1042.6 hPa | 0 mm | 0 m/s | 203 W/m² | - |
| 1777997346 | 8.33° C | 36% | 1042.4 hPa | 0 mm | 0 m/s | 88 W/m² | - |
* Rain latest hour (hover to see other rain measurements)
** Current wind speed in m/s (hover to see current wind gust speed)